Regional Weather Roundup
Issued by NWS Green Bay, WI

Home | Current Version | Previous Version | Graphics & Text | Print | Product List | Glossary Off
Versions: 1 2 3 4 5 6 7 8 9 10 11 12 13 14 15 16 17 18 19 20 21 22 23 24 25 26 27 28 29 30 31 32 33 34 35 36 37 38 39 40 41 42 43 44 45 46 47 48 49 50

445
ASUS43 KGRB 261800
RWRGRB

NORTH-CENTRAL AND NORTHEAST WISCONSIN REGIONAL WEATHER ROUNDUP
NATIONAL WEATHER SERVICE GREEN BAY WI
100 PM CDT FRI AUG 26 2016

WIZ005-009-010>012-018-019-261900-
NORTH CENTRAL WISCONSIN

CITY           SKY/WX    TMP DP  RH WIND       PRES   REMARKS
IRONWOOD       CLOUDY    65  46  50 VRB6      30.17S
MANITOWISH WTR NOT AVBL
ARBOR VITAE    NOT AVBL
EAGLE RIVER    NOT AVBL
LAND O LAKES   NOT AVBL
RHINELANDER    CLOUDY    67  52  58 NW9       30.17F
PHILLIPS       CLOUDY    66  51  59 NW5       30.16F
ANTIGO         NOT AVBL
TOMAHAWK       NOT AVBL
MERRILL        CLOUDY    70  52  53 NW7       30.17F
$$

WIZ013-073-261900-
NORTHEAST WISCONSIN

CITY           SKY/WX    TMP DP  RH WIND       PRES   REMARKS
IRON MOUNTAIN  CLOUDY    68  52  56 NW7       30.13S
MARINETTE      CLOUDY   N/A N/A N/A VRB5      30.13S
$$

WIZ017-030-035>037-045-261900-
CENTRAL WISCONSIN

CITY           SKY/WX    TMP DP  RH WIND       PRES   REMARKS
MEDFORD        NOT AVBL
WAUSAU         MOSUNNY   68  51  54 VRB7      30.15F
MOSINEE        MOSUNNY   70  55  60 W8        30.18F
MARSHFIELD     MOSUNNY   70  52  52 VRB3      30.17F
WISC RAPIDS    CLOUDY    71  53  52 NW6       30.18F
STEVENS POINT  NOT AVBL
WAUPACA        NOT AVBL
SHAWANO        NOT AVBL
CLINTONVILLE   CLOUDY    70  52  52 W9        30.16S
WAUTOMA        MOSUNNY   71  57  61 W6        30.17F
$$

WIZ038-039-048-051-261900-
FOX VALLEY

CITY           SKY/WX    TMP DP  RH WIND       PRES   REMARKS
NWS GREEN BAY  CLOUDY    72  58  61 W9        30.15S
APPLETON       PTSUNNY   72  52  49 VRB6      30.15F
OSHKOSH        MOSUNNY   72  58  61 VRB3      30.16S
FOND DU LAC    CLOUDY    72  56  57 CALM      30.17F
$$

WIZ022-050-052-261900-
EAST CENTRAL WISCONSIN

CITY           SKY/WX    TMP DP  RH WIND       PRES   REMARKS
EPHRAIM        NOT AVBL
WASHINGTON ISL NOT AVBL
STURGEON BAY   PTSUNNY   71  56  58 W10       30.14F
MANITOWOC      NOT AVBL
SHEBOYGAN      MOSUNNY   73  55  53 W6        30.16F
$$

LMZ563-521-522-541>543-261900-
LAKESHORE

STATION/POSITION TIME  TEMP    WIND        PRES    VSBY  WAVE
                       AIR SEA DIR/SP/G                  HT/PER
                 (UTC) (F)     (DEG/KT/KT) (MB)    (MI)  (FT/S)
SHEBOYGAN LKSHOR 1700   64     150/  6/  8 1021.0F
KEWAUNEE LKSHORE 1700   71     320/  4/ 10 1020.3F
NORTHPORT PIER   1700   69     300/  6/  9 1020.0F
N MID LAKE BUOY  1650   65 70  250/  8/ 10 1019.6F         1/ 3
S GREEN BAY BUOY 1700   69 72  230/  8/ 12 1020.1F
SISTER BAY LKSHO 1707   77     270/  9/ 10   N/A
CHAMBERS ISLAND  1700   69     200/  4/  9 1020.0F
MENOMINEE LKSHOR 1700   71     260/  6/  9 1019.3F
$$




USA.gov is the U.S. government's official web portal to all federal, state and local government web resources and services.